| time (UTC) | temp F | wind direction | speed MPH | gust MPH | rain 1hr in | rain 24hr in | rain mn in | humidity % | barometer mb |
| 20260903214127 | 86 | 288 | 0.0 | 6.0 | 0.00 | 0.55 | 0.55 | 63 | 1010.9 |
| 20260903213129 | 86 | 275 | 0.0 | 4.0 | 0.00 | 0.55 | 0.55 | 64 | 1010.7 |
| 20260903211128 | 87 | 235 | 0.0 | 2.0 | 0.00 | 0.55 | 0.55 | 62 | 1010.9 |
| 20260903210127 | 87 | 273 | 0.0 | 7.0 | 0.00 | 0.55 | 0.55 | 61 | 1010.9 |
| 20260903205127 | 87 | 221 | 0.0 | 8.0 | 0.00 | 0.55 | 0.55 | 63 | 1011.0 |
| 20260903204129 | 88 | 214 | 4.0 | 6.0 | 0.00 | 0.55 | 0.55 | 63 | 1011.1 |
| 20260903203127 | 88 | 200 | 3.0 | 10.0 | 0.00 | 0.55 | 0.55 | 62 | 1011.2 |
| 20260903202127 | 88 | 171 | 0.0 | 3.0 | 0.00 | 0.55 | 0.55 | 61 | 1011.2 |
| 20260903200127 | 89 | 286 | 1.0 | 9.0 | 0.00 | 0.55 | 0.55 | 60 | 1011.4 |
| 20260903195127 | 90 | 280 | 0.0 | 5.0 | 0.00 | 0.55 | 0.55 | 59 | 1011.4 |
| 20260903024119 | 69 | 102 | 0.0 | 6.0 | 0.00 | 0.02 | 0.02 | 96 | 1016.7 |
| 20260903023119 | 69 | 102 | 0.0 | 3.0 | 0.00 | 0.02 | 0.02 | 96 | 1016.9 |
| 20260903022119 | 69 | 115 | 3.0 | 3.0 | 0.00 | 0.02 | 0.02 | 96 | 1017.0 |
| 20260903021119 | 69 | 98 | 0.0 | 2.0 | 0.00 | 0.02 | 0.02 | 96 | 1017.1 |
| 20260903020119 | 69 | 102 | 0.0 | 7.0 | 0.00 | 0.02 | 0.02 | 96 | 1016.9 |
| 20260903014119 | 69 | 111 | 0.0 | 7.0 | 0.00 | 0.02 | 0.02 | 96 | 1016.6 |
| 20260903013119 | 69 | 107 | 0.0 | 7.0 | 0.00 | 0.02 | 0.02 | 95 | 1016.7 |
| 20260903012119 | 69 | 121 | 2.0 | 7.0 | 0.00 | 0.02 | 0.02 | 95 | 1016.7 |
| 20260903011119 | 69 | 103 | 0.0 | 4.0 | 0.00 | 0.02 | 0.02 | 95 | 1016.8 |
| 20260903010119 | 70 | 86 | 4.0 | 7.0 | 0.00 | 0.02 | 0.02 | 95 | 1017.0 |
| 20260903005119 | 70 | 107 | 1.0 | 4.0 | 0.00 | 0.02 | 0.02 | 95 | 1017.1 |
| 20260903004119 | 70 | 107 | 1.0 | 4.0 | 0.00 | 0.02 | 0.02 | 95 | 1017.2 |
| 20260903003119 | 70 | 96 | 1.0 | 4.0 | 0.00 | 0.02 | 0.02 | 95 | 1017.0 |
| 20260903002120 | 70 | 110 | 4.0 | 6.0 | 0.00 | 0.03 | 0.02 | 95 | 1016.8 |
| 20260903001119 | 70 | 107 | 0.0 | 3.0 | 0.00 | 0.06 | 0.02 | 95 | 1016.8 |
| 20260903000119 | 70 | 94 | 0.0 | 4.0 | 0.00 | 0.09 | 0.02 | 95 | 1016.5 |
| 20260902235119 | 70 | 105 | 1.0 | 4.0 | 0.00 | 0.10 | 0.02 | 95 | 1016.6 |
| 20260902234118 | 70 | 103 | 0.0 | 3.0 | 0.00 | 0.10 | 0.02 | 95 | 1016.5 |
| 20260902233120 | 70 | 103 | 3.0 | 4.0 | 0.00 | 0.10 | 0.02 | 95 | 1016.5 |
| 20260902232119 | 70 | 117 | 2.0 | 4.0 | 0.00 | 0.10 | 0.02 | 95 | 1016.6 |
| 20260902231119 | 70 | 107 | 0.0 | 6.0 | 0.00 | 0.10 | 0.02 | 95 | 1016.5 |
| 20260902230119 | 70 | 128 | 0.0 | 7.0 | 0.00 | 0.10 | 0.02 | 95 | 1016.5 |
| 20260902225119 | 70 | 111 | 4.0 | 4.0 | 0.00 | 0.10 | 0.02 | 95 | 1016.5 |
| 20260902224118 | 70 | 136 | 3.0 | 5.0 | 0.00 | 0.10 | 0.02 | 95 | 1016.7 |
| 20260902223118 | 70 | 112 | 0.0 | 4.0 | 0.00 | 0.10 | 0.02 | 95 | 1016.8 |
| 20260902221118 | 71 | 118 | 1.0 | 5.0 | 0.00 | 0.10 | 0.02 | 95 | 1017.0 |
| 20260902220118 | 71 | 104 | 0.0 | 3.0 | 0.00 | 0.10 | 0.02 | 95 | 1017.2 |